Weather reports worldwide

Advertisment
Jersey Airport, United Kingdom (3895): temperature & dewpoint: 16.02.2019 01:00:00 - 22.02.2019 01:00:00 (GMT)Jersey Airport, United Kingdom (3895): temperature -20cm & temperature -100cm: 16.02.2019 01:00:00 - 22.02.2019 01:00:00 (GMT)Jersey Airport, United Kingdom (3895): wind speed: 16.02.2019 01:00:00 - 22.02.2019 01:00:00 (GMT)Jersey Airport, United Kingdom (3895): wind direction: 16.02.2019 01:00:00 - 22.02.2019 01:00:00 (GMT)Jersey Airport, United Kingdom (3895): reduced air pressure: 16.02.2019 01:00:00 - 22.02.2019 01:00:00 (GMT)Jersey Airport, United Kingdom (3895): visibility: 16.02.2019 01:00:00 - 22.02.2019 01:00:00 (GMT)Jersey Airport, United Kingdom (3895): sunshine duration: 16.02.2019 01:00:00 - 22.02.2019 01:00:00 (GMT)Jersey Airport, United Kingdom (3895): precipitation: 16.02.2019 01:00:00 - 22.02.2019 01:00:00 (GMT)
Date & Time tt [°C] td [°C] tt -20cm [°C] tt -100cm [°C] ff [km/h] ff [kn] dd ppp [hPa] vv [km] sd [min] rr [mm]
22.02.2019 01:00:00 6,0 6,0 - - 22 12 SE 1032,0 - 0 0,0
22.02.2019 00:00:00 6,5 6,3 - - 15 8 SE 1031,7 2,0 - 0,0
21.02.2019 23:00:00 6,5 6,2 - - 24 13 SE 1031,3 4,0 0 0,0
21.02.2019 22:00:00 6,6 6,3 - - 24 13 SE 1031,4 4,9 0 0,0
21.02.2019 21:00:00 6,8 6,3 - - 22 12 SE 1031,2 6 0 0,0
21.02.2019 20:00:00 7,2 6,7 - - 18 10 SE 1030,7 6 0 0,0
21.02.2019 19:00:00 7,5 6,6 - - 22 12 SE 1030,1 8 0 0,0
21.02.2019 18:00:00 7,6 6,6 - - 26 14 SE 1029,5 8 24 0,0
21.02.2019 17:00:00 8,7 7,2 - - 28 15 SE 1028,8 10 60 0,0
21.02.2019 16:00:00 9,5 7,6 - - 18 10 SE 1028,6 11 60 0,0
21.02.2019 15:00:00 10,2 7,7 - - 16 9 SSE 1028,4 10 60 0,0
21.02.2019 14:00:00 10,4 7,8 - - 15 8 S 1028,2 23 60 0,0
21.02.2019 13:00:00 10,3 8,0 - - 15 8 S 1028,2 9 54 0,2
21.02.2019 12:00:00 9,5 8,0 - - 16 9 S 1028,1 9 60 0,0
21.02.2019 11:00:00 9,3 8,4 - - 16 9 SSE 1028,0 13 12 0,0
21.02.2019 10:00:00 8,6 8,0 - - 11 6 SSE 1027,9 10 0 0,0
21.02.2019 09:00:00 7,8 7,5 8,9 8,7 9 5 SE 1027,5 10 0 0,0
21.02.2019 08:00:00 7,4 7,2 - - 8 4 SSE 1026,9 10 0 0,0
21.02.2019 07:00:00 7,2 6,9 - - 11 6 S 1026,0 8 0 0,0
21.02.2019 06:00:00 7,3 6,8 - - 11 6 S 1025,6 10 0 0,0
21.02.2019 05:00:00 7,5 7,0 - - 21 11 S 1025,4 10 0 0,0
21.02.2019 04:00:00 7,4 7,0 - - 18 10 S 1024,9 10 0 0,0
21.02.2019 03:00:00 6,9 6,4 - - 15 8 S 1025,0 10 0 0,0
21.02.2019 02:00:00 7,1 6,6 - - 16 9 S 1025,2 10 0 0,0
21.02.2019 01:00:00 7,7 7,1 - - 18 10 S 1025,1 10 0 0,0
21.02.2019 00:00:00 7,8 7,2 - - 21 11 SSW 1024,9 10 - 0,0
20.02.2019 23:00:00 8,1 7,3 - - 21 11 SSW 1024,3 10 0 0,0
20.02.2019 22:00:00 8,8 7,2 - - 22 12 S 1023,8 10 0 0,0
20.02.2019 21:00:00 8,7 7,3 - - 21 11 S 1023,6 15 0 0,0
20.02.2019 20:00:00 8,9 7,0 - - 16 9 S 1023,4 15 0 0,0
20.02.2019 19:00:00 8,8 6,7 - - 16 9 S 1022,7 15 0 0,0
20.02.2019 18:00:00 8,1 6,3 - - 15 8 SSE 1022,3 18 6 0,0
20.02.2019 17:00:00 9,6 6,9 - - 15 8 SSE 1022,0 19 60 0,0
20.02.2019 16:00:00 10,3 6,9 - - 16 9 S 1021,9 25 60 0,0
20.02.2019 15:00:00 10,4 7,6 - - 18 10 S 1022,0 26 60 -
20.02.2019 14:00:00 10,0 6,6 - - 21 11 S 1022,2 24 48 -
20.02.2019 13:00:00 8,8 6,4 - - 22 12 S 1022,4 10 30 0,0
20.02.2019 12:00:00 8,9 5,7 - - 22 12 S 1022,5 10 60 0,0
20.02.2019 11:00:00 7,7 5,3 - - 24 13 S 1022,2 10 60 0,0
20.02.2019 10:00:00 7,2 6,0 - - 22 12 SSE 1021,9 10 60 0,0
20.02.2019 09:00:00 6,5 6,1 8,7 8,7 22 12 SSE 1021,4 10 36 0,0
20.02.2019 08:00:00 5,1 5,0 - - 21 11 SSE 1021,1 7 0 0,0
20.02.2019 07:00:00 5,3 5,3 - - 18 10 SSE 1020,6 3,5 0 0,0
20.02.2019 06:00:00 5,2 5,2 - - 18 10 SSE 1020,3 2,8 0 0,0
20.02.2019 05:00:00 5,6 5,5 - - 28 15 S 1020,2 4,7 0 0,0
20.02.2019 04:00:00 5,5 5,3 - - 24 13 S 1020,3 5 0 0,0
20.02.2019 03:00:00 6,2 5,7 - - 21 11 S 1020,5 7 0 0,0
20.02.2019 02:00:00 6,5 4,8 - - 21 11 S 1020,9 23 0 0,0
20.02.2019 01:00:00 6,5 5,8 - - 21 11 S 1021,0 14 0 0,0
20.02.2019 00:00:00 6,8 5,7 - - 18 10 S 1020,9 10 - 0,0
19.02.2019 23:00:00 7,0 6,1 - - 22 12 S 1020,9 10 0 0,0
19.02.2019 22:00:00 7,2 6,1 - - 22 12 S 1021,1 17 0 0,0
19.02.2019 21:00:00 7,6 6,5 - - 24 13 S 1021,0 10 0 0,0
19.02.2019 20:00:00 7,7 6,3 - - 18 10 SSE 1020,9 23 0 0,0
19.02.2019 19:00:00 7,4 6,6 - - 18 10 SSE 1020,9 16 0 0,0
19.02.2019 18:00:00 7,0 6,6 - - 16 9 SSE 1020,8 10 6 0,0
19.02.2019 17:00:00 7,4 6,5 - - 16 9 SE 1020,8 10 48 0,0
19.02.2019 16:00:00 8,9 6,5 - - 15 8 SSE 1020,9 21 60 0,0
19.02.2019 15:00:00 8,6 5,4 - - 15 8 SSE 1021,2 10 60 0,0
19.02.2019 14:00:00 9,3 5,8 - - 16 9 S 1021,5 10 60 0,0
19.02.2019 13:00:00 9,6 5,7 - - 16 9 SSW 1021,7 10 60 0,0
19.02.2019 12:00:00 9,1 6,4 - - 18 10 SSW 1022,2 10 60 0,0
19.02.2019 11:00:00 9,2 7,0 - - 21 11 SSW 1022,2 10 60 0,0
19.02.2019 10:00:00 8,9 6,0 - - 16 9 SW 1022,1 10 60 0,0
19.02.2019 09:00:00 7,8 6,6 8,7 8,7 13 7 SW 1021,9 10 60 0,0
19.02.2019 08:00:00 5,6 5,3 - - 13 7 SW 1021,7 10 18 0,0
19.02.2019 07:00:00 4,7 4,7 - - 13 7 SW 1021,0 7 0 0,0
19.02.2019 06:00:00 4,4 4,4 - - 11 6 WSW 1020,8 7 0 0,2
19.02.2019 05:00:00 4,5 4,5 - - 9 5 SW 1020,7 8 0 0,0
19.02.2019 04:00:00 4,0 3,9 - - 9 5 WSW 1020,5 8 0 0,0
19.02.2019 03:00:00 5,0 5,0 - - 11 6 SW 1020,5 3,9 0 0,0
19.02.2019 02:00:00 4,7 4,6 - - 13 7 WSW 1020,6 10 0 0,0
19.02.2019 01:00:00 5,1 4,7 - - 9 5 WSW 1020,5 7 0 0,0
19.02.2019 00:00:00 5,9 5,4 - - 5 3 WSW 1020,0 10 - 0,0
18.02.2019 23:00:00 6,5 5,9 - - 8 4 W 1020,0 10 0 0,0
18.02.2019 22:00:00 6,8 6,3 - - 9 5 W 1019,6 8 0 0,0
18.02.2019 21:00:00 7,0 6,5 - - 8 4 W 1018,9 10 0 0,0
18.02.2019 20:00:00 7,5 7,0 - - 13 7 W 1018,6 10 0 0,0
18.02.2019 19:00:00 7,5 6,9 - - 13 7 SSW 1018,0 9 0 0,0
18.02.2019 18:00:00 8,1 7,4 - - 13 7 SSW 1017,6 16 0 0,0
18.02.2019 17:00:00 8,3 7,5 - - 13 7 SSW 1017,2 18 6 0,0
18.02.2019 16:00:00 8,3 7,2 - - 15 8 SSW 1017,1 10 0 0,0
18.02.2019 15:00:00 8,2 7,3 - - 15 8 SW 1016,7 10 0 0,0
18.02.2019 14:00:00 7,7 7,1 - - 9 5 SSW 1016,6 10 0 0,4
18.02.2019 13:00:00 8,0 7,6 - - 13 7 WSW 1017,1 10 0 0,6
18.02.2019 12:00:00 7,9 7,4 - - 13 7 W 1017,4 8 0 0,4
18.02.2019 11:00:00 8,3 7,4 - - 11 6 W 1017,4 16 0 0,0
18.02.2019 10:00:00 8,4 7,6 - - 9 5 W 1017,2 8 0 0,0
18.02.2019 09:00:00 8,2 8,0 9,0 8,5 11 6 SSW 1017,2 1,4 0 0,0
18.02.2019 08:00:00 8,2 7,7 - - 8 4 S 1016,8 1,1 0 0,0
18.02.2019 07:00:00 8,1 7,7 - - 8 4 SW 1016,2 10 0 0,0
18.02.2019 06:00:00 8,2 7,7 - - 9 5 S 1016,5 10 0 0,0
18.02.2019 05:00:00 8,2 7,6 - - 15 8 S 1016,6 11 0 0,0
18.02.2019 04:00:00 8,1 7,4 - - 15 8 S 1016,8 10 0 0,0
18.02.2019 03:00:00 8,1 6,9 - - 15 8 SSW 1017,1 10 0 0,0
18.02.2019 02:00:00 8,9 7,4 - - 18 10 SSW 1017,4 10 0 0,0
18.02.2019 01:00:00 9,3 7,6 - - 21 11 SSW 1017,5 10 0 0,0
18.02.2019 00:00:00 9,6 8,1 - - 21 11 SSW 1017,7 10 - 0,0
17.02.2019 23:00:00 9,5 8,3 - - 21 11 SSW 1017,5 10 0 0,0
17.02.2019 22:00:00 9,9 8,6 - - 22 12 SSW 1017,5 10 0 0,0
17.02.2019 21:00:00 10,5 8,9 - - 21 11 S 1017,3 10 0 0,0
17.02.2019 20:00:00 10,4 8,9 - - 18 10 SSW 1016,9 11 0 0,0
17.02.2019 19:00:00 11,0 9,2 - - 16 9 SW 1016,8 10 0 0,0
17.02.2019 18:00:00 11,6 9,2 - - 16 9 SSW 1016,3 10 0 0,0
17.02.2019 17:00:00 11,0 8,7 - - 24 13 S 1016,1 15 0 0,0
17.02.2019 16:00:00 12,0 9,4 - - 24 13 S 1016,2 17 0 0,0
17.02.2019 15:00:00 11,2 9,1 - - 24 13 S 1016,4 10 0 0,0
17.02.2019 14:00:00 11,1 9,1 - - 28 15 S 1016,5 10 0 0,0
17.02.2019 13:00:00 10,0 7,7 - - 21 11 S 1016,8 10 0 0,0
17.02.2019 12:00:00 10,6 7,9 - - 26 14 S 1016,8 21 30 -
17.02.2019 11:00:00 9,4 7,6 - - 22 12 S 1016,8 18 54 -
17.02.2019 10:00:00 9,0 7,1 - - 26 14 SSE 1016,0 18 60 0,0
17.02.2019 09:00:00 8,3 6,5 8,7 8,4 31 17 S 1015,9 10 54 0,0
17.02.2019 08:00:00 7,5 5,6 - - 31 17 SSE 1015,3 27 0 0,0
17.02.2019 07:00:00 7,6 5,6 - - 35 19 SSE 1015,2 10 0 0,0
17.02.2019 06:00:00 7,3 5,3 - - 29 16 SSE 1015,5 10 0 0,0
17.02.2019 05:00:00 7,7 5,5 - - 29 16 SSE 1016,1 10 0 0,0
17.02.2019 04:00:00 8,3 5,9 - - 29 16 SSE 1016,2 25 0 0,0
17.02.2019 03:00:00 7,3 6,3 - - 21 11 SE 1016,9 10 0 0,0
17.02.2019 02:00:00 7,5 6,1 - - 22 12 SSE 1018,2 10 0 0,0
17.02.2019 01:00:00 7,7 6,3 - - 26 14 SE 1019,1 10 0 0,0
17.02.2019 00:00:00 9,6 8,1 - - 26 14 SE 1017,7 10 - 0,0
16.02.2019 23:00:00 8,0 6,8 - - 26 14 SE 1020,2 10 0 0,0
16.02.2019 22:00:00 8,1 7,0 - - 21 11 SE 1020,7 10 0 0,0
16.02.2019 21:00:00 8,2 6,2 - - 21 11 SE 1021,2 10 0 0,0
16.02.2019 20:00:00 8,7 6,4 - - 22 12 SE 1021,6 10 0 0,0
16.02.2019 19:00:00 9,6 6,6 - - 22 12 SE 1021,9 10 0 0,0
16.02.2019 18:00:00 9,4 6,9 - - 22 12 SE 1021,9 10 0 0,0
16.02.2019 17:00:00 9,5 8,0 - - 18 10 ESE 1022,1 10 24 0,0
16.02.2019 16:00:00 9,7 8,5 - - 16 9 SE 1022,4 10 0 0,0
16.02.2019 15:00:00 9,1 8,4 - - 13 7 SSE 1023,1 10 0 0,0
16.02.2019 14:00:00 8,4 7,7 - - 16 9 SE 1024,1 6 0 0,0
16.02.2019 13:00:00 7,9 7,4 - - 16 9 SE 1024,8 6 0 0,0
16.02.2019 12:00:00 8,0 7,2 - - 15 8 SE 1025,5 6 0 0,0
16.02.2019 11:00:00 8,4 7,8 - - 16 9 SSE 1025,5 12 0 0,0
16.02.2019 10:00:00 8,8 8,2 - - 13 7 S 1025,3 10 0 0,0
16.02.2019 09:00:00 9,1 8,6 8,4 8,4 15 8 S 1025,0 10 0 0,0
16.02.2019 08:00:00 9,3 9,1 - - 13 7 SSW 1024,9 10 0 0,0
16.02.2019 07:00:00 9,2 9,1 - - 16 9 SW 1024,5 8 0 0,0
16.02.2019 06:00:00 8,7 8,6 - - 18 10 WSW 1024,8 0,4 0 0,0
16.02.2019 05:00:00 8,8 7,7 - - 21 11 W 1024,7 9 0 0,0
16.02.2019 04:00:00 7,9 6,8 - - 8 4 S 1024,4 10 0 0,0
16.02.2019 03:00:00 6,1 4,9 - - 11 6 S 1024,7 10 0 0,0
16.02.2019 02:00:00 7,4 5,7 - - 18 10 S 1025,1 10 0 0,0
16.02.2019 01:00:00 8,4 5,6 - - 15 8 S 1025,2 10 0 0,0

tt = temperature
td = dewpoint
tt -20cm = temperature -20cm
tt -100cm = temperature -100cm
ff = wind speed
dd = wind direction
ppp = reduced air pressure
vv = visibility
sd = sunshine duration
rr = precipitation

Next stations